Location: Kernascl�den
(48.0062°N, 3.3198°W)
Time: 22:28:29
(UTC+00:00)

Okean O Rocket - Pass Details

Date: 21 January 2021
Orbit: 622 x 645 km, 98.2° (Epoch: 04 March)

Event Time Altitude Azimuth Distance (km) Brightness Sun altitude
Rises 18:32:04 0° 192° (SSW) 2,942 5.4 -15.7°
Reaches altitude 10° 18:34:30 10° 203° (SSW) 2,036 4.7 -16.1°
Maximum altitude 18:38:23 29° 264° (W) 1,169 3.8 -16.8°
Drops below altitude 10° 18:42:17 10° 326° (NW) 2,041 4.5 -17.4°
Sets 18:44:45 0° 337° (NNW) 2,952 5.2 -17.8°
